Stations météo

réclame
Mon MeteoGroup
Rouen, France (7037): Température de l'air & dewpoint: 17.09.2017 22:00:00 - 23.09.2017 22:00:00 (CEST)Rouen, France (7037): Température de l'air 5cm: 17.09.2017 22:00:00 - 23.09.2017 22:00:00 (CEST)Rouen, France (7037): Température de l'air -20cm & Température de l'air -100cm: 17.09.2017 22:00:00 - 23.09.2017 22:00:00 (CEST)Rouen, France (7037): Vitesse du vent & gusts: 17.09.2017 22:00:00 - 23.09.2017 22:00:00 (CEST)Rouen, France (7037): Direction du vent: 17.09.2017 22:00:00 - 23.09.2017 22:00:00 (CEST)Rouen, France (7037): reduced air pressure: 17.09.2017 22:00:00 - 23.09.2017 22:00:00 (CEST)Rouen, France (7037): visibility: 17.09.2017 22:00:00 - 23.09.2017 22:00:00 (CEST)Rouen, France (7037): Ensoleillement: 17.09.2017 22:00:00 - 23.09.2017 22:00:00 (CEST)Rouen, France (7037): Quantités de précipitations: 17.09.2017 22:00:00 - 23.09.2017 22:00:00 (CEST)
Date & Time tt [°C] td [°C] tt 5cm [°C] tt -20cm [°C] tt -100cm [°C] ff [km/h] ff [knt] fx [km/h] fx [knt] dd ppp [hPa] vv [km] sd [min] rr [mm]
23.09.2017 22:00:00 - - - - - - - - - - - - - -
23.09.2017 21:00:00 13,9 8,9 12,6 16,0 15,5 9 5 13 7 E 1021,1 20 0 0,0
23.09.2017 20:00:00 15,3 9,4 13,9 15,9 15,5 8 5 14 7 E 1020,8 17 4 0,0
23.09.2017 19:00:00 19,0 8,9 20,1 15,7 15,5 10 5 18 10 ESE 1020,5 20 44 0,0
23.09.2017 18:00:00 19,7 9,0 21,3 15,5 15,5 12 7 21 12 ESE 1020,4 19 43 0,0
23.09.2017 17:00:00 20,2 10,0 25,2 15,2 15,5 10 5 21 12 SE 1020,8 19 60 0,0
23.09.2017 16:00:00 19,9 8,6 24,4 15,0 15,5 12 6 19 10 SE 1021,3 14 60 0,0
23.09.2017 15:00:00 19,5 9,1 22,1 14,8 15,5 9 5 17 9 S 1022,0 4,8 60 0,0
23.09.2017 14:00:00 18,9 7,9 23,1 14,6 15,5 9 5 22 12 S 1022,6 60 60 0,0
23.09.2017 13:00:00 18,3 9,1 22,8 14,5 15,5 9 5 19 10 SSE 1023,0 60 60 0,0
23.09.2017 12:00:00 17,5 8,4 19,9 14,5 15,5 10 5 16 8 ESE 1023,4 60 60 0,0
23.09.2017 11:00:00 14,5 8,7 14,7 14,6 15,5 4 2 15 8 SSE 1023,8 53 60 0,0
23.09.2017 10:00:00 12,5 9,5 11,1 14,7 15,5 10 5 14 7 SE 1023,7 15 60 0,0
23.09.2017 09:00:00 9,4 8,9 2,8 14,9 15,5 4 2 9 5 SE 1023,7 7 11 0,0
23.09.2017 08:00:00 6,7 6,1 0,7 15,0 15,5 8 4 9 5 ESE 1023,9 3,0 0 0,0
23.09.2017 07:00:00 6,4 5,7 0,9 15,2 15,5 5 3 8 5 E 1023,9 7 0 0,0
23.09.2017 06:00:00 7,5 6,9 1,9 15,3 15,5 5 3 9 5 SE 1023,9 4,1 0 0,0
23.09.2017 05:00:00 7,5 6,9 2,2 15,5 15,5 7 4 9 5 SE 1024,2 10 0 0,0
23.09.2017 04:00:00 7,4 6,8 1,9 15,6 15,5 4 2 9 5 SE 1024,6 18 0 0,0
23.09.2017 03:00:00 6,9 6,2 1,7 15,7 15,5 7 4 10 5 SE 1024,5 45 0 0,0
23.09.2017 02:00:00 7,6 6,8 1,8 15,9 15,5 4 2 6 4 ESE 1024,7 19 0 0,0
23.09.2017 01:00:00 8,1 6,6 2,3 16,0 15,5 8 4 11 6 ENE 1024,6 48 0 0,0
23.09.2017 00:00:00 8,4 6,4 2,6 16,1 15,5 8 4 10 5 ENE 1024,5 60 0 0,0
22.09.2017 23:00:00 9,4 6,5 3,9 16,2 15,5 9 5 10 5 ENE 1024,6 60 0 0,0
22.09.2017 22:00:00 10,1 6,1 5,1 16,2 15,5 8 4 11 6 NNE 1024,5 60 0 0,0
22.09.2017 21:00:00 12,7 6,9 10,6 16,2 15,5 9 5 13 7 N 1024,1 60 0 0,0
22.09.2017 20:00:00 13,9 6,7 11,4 16,1 15,5 9 5 18 10 N 1023,4 60 17 0,0
22.09.2017 19:00:00 16,8 6,9 17,1 16,0 15,5 13 7 22 12 NW 1022,8 52 60 0,0
22.09.2017 18:00:00 18,1 6,6 21,7 15,8 15,5 12 6 21 12 W 1022,5 59 60 0,0
22.09.2017 17:00:00 18,3 6,8 22,6 15,6 15,5 7 4 18 10 W 1022,2 20 60 0,0
22.09.2017 16:00:00 18,9 7,0 24,5 15,3 15,5 11 6 23 13 W 1022,3 20 60 0,0
22.09.2017 15:00:00 18,3 7,4 19,6 15,2 15,5 11 6 20 11 WNW 1022,4 46 57 0,0
22.09.2017 14:00:00 17,7 6,8 20,6 15,1 15,6 9 5 23 13 NW 1022,6 19 58 0,2
22.09.2017 13:00:00 17,0 8,2 22,6 14,9 15,5 10 5 23 12 W 1022,5 20 60 0,0
22.09.2017 12:00:00 16,0 7,7 21,4 14,9 15,5 11 6 23 12 WNW 1022,4 59 60 0,0
22.09.2017 11:00:00 15,1 8,3 18,4 14,9 15,5 10 6 23 12 WNW 1022,2 51 60 0,0
22.09.2017 10:00:00 13,7 10,1 14,6 15,0 15,6 10 5 18 10 NW 1022,0 52 60 0,0
22.09.2017 09:00:00 11,7 10,9 7,9 15,0 15,6 8 4 11 6 NW 1021,7 19 11 0,0
22.09.2017 08:00:00 10,9 9,8 8,7 15,1 15,5 8 4 12 6 WNW 1021,5 18 0 0,0
22.09.2017 07:00:00 12,6 10,8 11,7 15,1 15,5 8 5 13 7 NW 1020,6 60 0 0,0
22.09.2017 06:00:00 12,7 11,9 11,6 15,1 15,6 8 4 13 7 WNW 1020,5 16 0 0,0
22.09.2017 05:00:00 12,6 11,3 11,7 15,2 15,6 2 1 10 6 W 1020,4 20 0 0,0
22.09.2017 04:00:00 13,0 11,9 11,7 15,2 15,6 4 2 9 5 WNW 1020,3 20 0 0,0
22.09.2017 03:00:00 13,2 11,6 12,5 15,2 15,6 6 4 16 9 NW 1020,2 59 0 0,0
22.09.2017 02:00:00 13,7 11,4 13,3 15,2 15,6 10 5 17 9 NW 1020,1 60 0 0,0
22.09.2017 01:00:00 14,1 11,3 13,5 15,2 15,6 12 6 23 12 NW 1019,6 56 0 0,0
22.09.2017 00:00:00 14,6 12,6 14,3 15,3 15,6 8 4 17 9 WNW 1019,5 39 0 0,0
21.09.2017 23:00:00 15,0 12,5 13,6 15,3 15,6 10 5 18 10 NW 1019,2 47 0 0,0
21.09.2017 22:00:00 14,7 11,7 9,6 15,3 15,6 10 5 20 11 NNW 1019,0 59 0 0,0
21.09.2017 21:00:00 12,9 9,0 9,0 15,2 15,6 4 2 9 5 SSW 1018,7 60 0 0,0
21.09.2017 20:00:00 13,9 8,9 10,4 15,1 15,6 4 2 6 4 S 1018,0 1,9 0 0,0
21.09.2017 19:00:00 17,2 9,9 15,8 15,0 15,6 5 3 21 11 S 1017,4 60 26 0,0
21.09.2017 18:00:00 19,7 9,0 22,4 14,8 15,6 16 9 24 13 SSW 1017,1 32 60 0,0
21.09.2017 17:00:00 19,7 9,0 20,7 14,6 15,6 19 10 28 15 S 1016,9 24 55 0,0
21.09.2017 16:00:00 18,9 8,8 20,8 14,4 15,6 21 11 33 18 S 1016,9 26 56 0,0
21.09.2017 15:00:00 19,3 8,6 22,5 14,2 15,6 21 11 30 16 S 1017,0 24 60 0,0
21.09.2017 14:00:00 19,0 10,0 21,1 14,1 15,6 20 11 29 15 S 1017,5 26 60 0,0
21.09.2017 13:00:00 17,5 9,1 19,7 14,0 15,6 16 9 28 15 SSE 1018,1 20 60 0,0
21.09.2017 12:00:00 16,2 9,4 17,7 14,0 15,7 18 10 29 16 SSE 1018,4 26 60 0,0
21.09.2017 11:00:00 13,6 8,4 14,7 14,1 15,7 13 7 21 11 S 1018,9 28 60 0,0
21.09.2017 10:00:00 12,1 7,8 12,3 14,1 15,7 12 7 20 11 S 1019,0 50 58 0,0
21.09.2017 09:00:00 10,6 7,7 8,1 14,2 15,6 14 8 19 11 SSE 1018,8 20 13 0,0
21.09.2017 08:00:00 8,2 6,8 6,9 14,3 15,7 11 6 15 8 SSE 1019,0 54 0 0,0
21.09.2017 07:00:00 8,3 6,3 7,2 14,4 15,7 9 5 18 10 SE 1018,9 54 0 0,0
21.09.2017 06:00:00 8,7 7,1 7,6 14,4 15,7 9 5 15 8 SSE 1018,8 56 0 0,2
21.09.2017 05:00:00 8,9 7,3 8,1 14,5 15,7 10 6 20 11 SSE 1019,2 51 0 0,0
21.09.2017 04:00:00 9,1 7,5 7,4 14,6 15,7 11 6 16 9 SSE 1019,5 53 0 0,0
21.09.2017 03:00:00 9,3 7,6 7,0 14,7 15,7 10 5 16 9 SSE 1019,7 59 0 0,0
21.09.2017 02:00:00 9,2 7,8 5,8 14,8 15,7 9 5 11 6 SSE 1019,9 53 0 0,0
21.09.2017 01:00:00 10,1 8,5 7,2 14,8 15,7 8 5 13 7 SSE 1019,9 36 0 0,0
21.09.2017 00:00:00 10,6 8,5 9,0 14,8 15,7 8 4 14 7 S 1019,9 49 0 0,0
20.09.2017 23:00:00 10,9 8,8 7,1 14,9 15,7 9 5 12 7 S 1020,0 60 0 0,0
20.09.2017 22:00:00 11,6 9,0 10,5 14,8 15,7 10 5 14 7 SSE 1020,1 60 0 0,0
20.09.2017 21:00:00 12,0 9,4 10,9 14,8 15,7 10 5 12 7 SSE 1020,3 60 0 0,0
20.09.2017 20:00:00 13,8 9,4 13,2 14,7 15,7 9 5 16 9 SSE 1020,1 6 3 0,0
20.09.2017 19:00:00 16,0 9,4 16,5 14,5 15,7 11 6 22 12 S 1020,0 52 35 0,0
20.09.2017 18:00:00 17,0 8,4 18,6 14,3 15,7 13 7 33 18 S 1020,4 20 29 0,0
20.09.2017 17:00:00 18,6 8,5 21,3 14,1 15,7 16 8 25 13 S 1020,7 45 60 0,0
20.09.2017 16:00:00 18,0 9,1 22,2 13,9 15,7 18 10 27 15 S 1021,1 49 60 0,0
20.09.2017 15:00:00 17,9 9,3 18,7 13,8 15,7 15 8 21 12 SSW 1021,4 60 48 0,0
20.09.2017 14:00:00 14,4 9,4 15,9 13,8 15,8 9 5 16 9 SSW 1022,2 53 0 0,0
20.09.2017 13:00:00 13,3 9,4 15,0 13,8 15,8 9 5 13 7 SSW 1022,6 58 0 0,0
20.09.2017 12:00:00 10,9 9,7 10,1 13,8 15,8 7 4 10 6 SSW 1023,1 19 2 0,0
20.09.2017 11:00:00 8,6 8,0 9,4 13,9 15,8 6 3 10 5 S 1023,4 16 0 0,0
20.09.2017 10:00:00 8,4 7,8 9,2 14,0 15,9 7 4 13 7 SSE 1023,3 12 22 0,0
20.09.2017 09:00:00 6,6 6,2 3,4 14,1 15,8 8 4 10 5 SSE 1023,3 1,4 28 0,0
20.09.2017 08:00:00 5,0 4,4 0,6 14,2 15,8 3 2 6 3 S 1023,4 0,1 1 0,0
20.09.2017 07:00:00 4,5 3,9 1,1 14,4 15,8 5 3 7 4 SSE 1023,4 0,1 0 0,0
20.09.2017 06:00:00 5,4 4,8 1,3 14,5 15,8 5 3 7 4 S 1023,3 0,1 0 0,0
20.09.2017 05:00:00 5,8 5,2 3,2 14,6 15,8 6 4 9 5 S 1023,5 1,0 0 0,0
20.09.2017 04:00:00 5,6 5,0 1,3 14,7 15,8 6 3 9 5 S 1023,8 0,3 0 0,2
20.09.2017 03:00:00 5,8 5,2 1,0 14,8 15,8 4 2 7 4 S 1024,1 0,4 0 0,0
20.09.2017 02:00:00 6,4 5,8 1,1 15,0 15,8 5 3 7 4 SSW 1024,1 1,8 0 0,0
20.09.2017 01:00:00 6,7 6,0 1,3 15,1 15,9 3 2 8 5 SW 1024,2 0,8 0 0,0
20.09.2017 00:00:00 7,4 6,8 1,9 15,2 15,9 5 3 10 5 SW 1024,2 4,0 0 0,0
19.09.2017 23:00:00 7,4 6,3 2,7 15,2 15,9 3 2 4 2 SW 1024,1 16 0 0,0
19.09.2017 22:00:00 8,8 6,8 3,7 15,3 15,9 4 2 10 5 NW 1024,2 44 0 0,0
19.09.2017 21:00:00 9,0 7,0 4,0 15,2 15,9 4 2 12 6 NW 1024,0 55 0 0,0
19.09.2017 20:00:00 11,7 7,0 9,9 15,2 15,9 8 4 22 12 NNW 1023,3 60 1 0,0
19.09.2017 19:00:00 13,7 6,5 13,5 15,1 15,9 16 8 27 15 NW 1022,8 46 58 0,0
19.09.2017 18:00:00 14,8 6,6 15,8 15,0 15,9 21 12 31 17 NW 1022,4 57 17 0,0
19.09.2017 17:00:00 14,8 7,6 16,2 14,8 15,9 15 8 26 14 NW 1022,4 58 43 0,0
19.09.2017 16:00:00 16,4 8,6 18,8 14,7 15,9 13 7 22 12 WNW 1022,1 33 47 0,0
19.09.2017 15:00:00 15,4 8,6 14,8 14,6 15,9 19 10 29 15 NNW 1022,3 30 9 0,0
19.09.2017 14:00:00 14,5 7,5 15,8 14,5 15,9 11 6 23 12 NW 1022,1 56 13 0,0
19.09.2017 13:00:00 14,2 8,6 15,7 14,4 15,9 9 5 19 10 NW 1022,1 39 16 0,0
19.09.2017 12:00:00 13,1 8,6 15,0 14,4 15,9 14 8 25 13 N 1021,9 53 35 0,0
19.09.2017 11:00:00 12,5 8,8 12,8 14,4 15,9 11 6 21 12 NNW 1021,7 56 24 0,0
19.09.2017 10:00:00 11,0 8,6 10,5 14,4 15,9 14 7 22 12 N 1021,1 55 29 0,0
19.09.2017 09:00:00 10,1 9,3 9,2 14,5 15,9 11 6 18 10 NNW 1020,5 55 5 0,0
19.09.2017 08:00:00 9,4 8,8 8,9 14,5 15,9 9 5 15 8 NW 1020,2 6 0 0,8
19.09.2017 07:00:00 9,7 9,1 9,3 14,6 15,9 6 3 9 5 W 1019,6 3,6 0 0,6
19.09.2017 06:00:00 9,6 8,8 9,1 14,6 15,9 7 4 12 6 WSW 1019,2 3,8 0 0,4
19.09.2017 05:00:00 9,6 8,8 9,2 14,7 16,0 5 3 10 6 WSW 1019,4 4,9 0 0,4
19.09.2017 04:00:00 9,8 9,0 9,4 14,8 16,0 7 4 16 9 SSW 1019,6 5 0 0,8
19.09.2017 03:00:00 9,9 8,7 9,3 14,8 16,0 13 7 22 12 W 1019,9 17 0 0,2
19.09.2017 02:00:00 9,8 8,7 9,2 14,8 15,9 12 6 18 10 WSW 1019,6 48 0 0,0
19.09.2017 01:00:00 10,0 8,6 8,9 14,9 15,9 4 2 14 7 WSW 1019,7 19 0 0,0
19.09.2017 00:00:00 10,5 8,3 9,6 15,0 16,0 5 3 18 10 W 1019,9 19 0 0,2
18.09.2017 23:00:00 11,3 9,6 5,8 15,0 16,0 13 7 27 15 NNW 1020,1 20 0 0,0
18.09.2017 22:00:00 9,8 7,7 6,4 15,1 16,0 6 3 17 9 W 1019,8 15 0 0,0
18.09.2017 21:00:00 10,5 8,1 7,4 15,0 16,0 14 7 20 11 WNW 1019,6 35 0 0,0
18.09.2017 20:00:00 12,1 8,0 10,1 14,9 16,0 11 6 28 15 NW 1018,8 38 14 0,0
18.09.2017 19:00:00 14,2 8,4 14,4 14,9 16,0 19 10 31 17 NW 1018,2 57 56 0,0
18.09.2017 18:00:00 14,8 8,5 14,6 14,7 16,0 16 9 36 20 NW 1017,8 41 33 0,0
18.09.2017 17:00:00 16,0 10,3 13,2 14,6 16,0 15 8 25 13 WNW 1017,5 27 30 0,2
18.09.2017 16:00:00 13,7 9,3 14,2 14,5 16,0 19 10 32 17 NW 1017,6 46 26 0,0
18.09.2017 15:00:00 14,6 9,4 15,6 14,4 16,0 15 8 28 15 WNW 1017,4 48 37 0,0
18.09.2017 14:00:00 14,5 10,3 12,4 14,3 16,0 11 6 23 12 WNW 1017,4 41 24 0,0
18.09.2017 13:00:00 12,9 10,6 12,4 14,2 16,0 13 7 25 13 NNW 1017,5 17 20 0,0
18.09.2017 12:00:00 14,2 11,9 13,3 14,2 16,1 13 7 20 11 W 1017,2 18 44 0,2
18.09.2017 11:00:00 11,4 10,6 10,3 14,2 16,0 9 5 18 10 W 1017,3 15 0 1,0
18.09.2017 10:00:00 10,5 9,9 9,9 14,3 16,0 11 6 15 8 W 1017,2 8 2 1,2
18.09.2017 09:00:00 9,8 9,3 8,1 14,4 16,1 10 5 16 9 NW 1017,2 7 10 0,0
18.09.2017 08:00:00 8,6 8,2 7,9 14,5 16,1 12 6 16 9 WSW 1016,7 7 0 0,0
18.09.2017 07:00:00 8,2 7,8 7,5 14,6 16,0 7 4 10 5 W 1016,5 4,8 0 0,0
18.09.2017 06:00:00 7,9 7,5 2,0 14,7 16,1 7 4 14 7 WSW 1016,3 2,8 0 0,0
18.09.2017 05:00:00 6,2 5,8 0,7 14,8 16,1 9 5 11 6 SSW 1016,4 0,5 0 0,0
18.09.2017 04:00:00 5,9 5,3 0,6 15,0 16,1 9 5 10 6 WSW 1016,4 0,2 0 0,2
18.09.2017 03:00:00 6,4 5,8 0,8 15,1 16,1 7 4 9 5 SSW 1016,5 0,2 0 0,0
18.09.2017 02:00:00 6,4 5,8 1,3 15,2 16,1 5 3 9 5 W 1016,5 0,3 0 0,0
18.09.2017 01:00:00 7,2 6,6 1,9 15,3 16,1 8 4 10 6 W 1016,5 4,0 0 0,0
18.09.2017 00:00:00 7,8 7,2 2,2 15,4 16,1 6 3 8 5 WNW 1016,6 3,7 0 0,0
17.09.2017 23:00:00 8,0 6,5 3,2 15,5 16,1 0 0 9 5 N 1016,3 9 0 0,0
17.09.2017 22:00:00 10,1 7,7 6,6 15,5 16,1 8 4 12 7 NNW 1015,9 37 0 0,0

tt = Température de l'air
td = dewpoint
tt 5cm = Température de l'air 5cm
tt -20cm = Température de l'air -20cm
tt -100cm = Température de l'air -100cm
ff = Vitesse du vent
fx = gusts
dd = Direction du vent
ppp = reduced air pressure
vv = visibility
sd = Ensoleillement
rr = Quantités de précipitations

stations d'obs. à proximité